Lid_Strength_Index
6 9 11 9 7 7 8 9 9 8 6 7 7 7 6 5 5 5 6 5 6 6 4 2 2 2 2 2 2 1 1 1 1 1 1 1 1 1 0 0 -1 -1 -1 -1
9 11 7 6 7 7 8 9 9 7 6 7 7 8 6 5 6 5 6 7 7 6 5 5 3 2 2 2 2 1 1 1 1 1 1 1 1 1 0 0 -0 -1 -1 -1
11 8 6 7 8 8 8 9 9 9 7 7 7 9 7 6 5 5 6 6 6 6 6 5 4 3 3 3 2 2 1 1 1 1 1 1 1 1 1 1 0 -0 -1 -1
9 6 7 8 8 8 10 7 8 8 9 12 7 12 9 7 7 6 7 7 6 6 5 4 4 3 3 3 2 1 1 1 1 0 1 1 2 2 2 1 0 0 -1 -1
10 9 9 9 8 7 9 7 8 8 9 9 10 11 9 7 9 8 7 7 6 6 5 5 4 3 3 2 2 1 1 1 1 1 1 1 2 1 1 1 1 0 -0 -1
8 6 7 8 6 7 7 8 8 8 9 14 11 11 11 9 9 8 6 6 6 5 5 4 3 3 3 2 2 2 2 1 1 1 1 1 2 2 2 1 1 1 0 -0
9 9 6 6 9 6 7 10 14 14 15 16 11 12 9 7 7 6 6 6 6 5 4 4 4 4 3 3 2 2 2 2 1 1 1 1 1 1 1 1 1 1 1 1
11 12 8 7 8 9 8 9 13 18 20 15 11 13 10 6 5 5 5 5 4 4 4 3 3 3 3 3 2 2 2 2 1 1 1 1 1 1 1 0 1 1 1 1
11 11 7 7 6 7 9 10 8 11 12 14 12 10 7 6 6 5 5 5 5 4 4 4 3 3 3 3 2 2 2 2 1 1 1 1 1 1 1 0 0 0 0 0
8 11 8 7 6 6 7 7 11 10 15 16 12 11 11 9 7 6 6 6 5 4 4 3 3 3 2 2 2 2 2 2 1 1 1 1 1 1 0 0 1 0 -0 -0
8 9 10 8 10 9 9 10 9 9 10 14 15 13 7 8 7 7 6 6 5 4 4 3 3 3 2 2 2 2 2 2 1 1 1 1 1 0 0 0 0 -0 -0 -0
7 8 11 11 8 7 8 9 10 15 16 12 12 14 7 6 5 5 5 4 4 3 3 3 2 2 3 3 2 2 2 1 1 1 1 1 1 1 1 1 0 -0 -0 -0
7 9 12 12 10 8 9 8 8 9 13 14 15 15 6 5 5 5 5 4 4 3 3 3 2 3 3 3 2 2 2 1 1 1 1 1 1 1 1 0 -0 0 1 1
6 8 10 13 11 9 10 9 8 9 16 15 12 13 8 7 6 6 5 4 4 4 3 3 3 3 3 3 2 2 2 1 1 1 1 1 1 1 0 0 1 1 2 2
7 12 9 8 8 8 9 9 9 9 9 12 13 10 8 7 7 6 5 4 5 5 6 5 5 4 4 3 3 2 2 1 1 1 1 1 1 1 1 2 2 2 3 3
6 12 9 10 8 8 10 9 8 8 9 8 10 11 7 7 6 6 6 6 6 7 6 5 4 4 4 3 3 3 3 3 1 2 2 3 3 3 3 4 4 4 4 4
9 12 12 13 9 9 11 9 8 8 7 8 12 10 7 8 8 7 7 6 6 6 5 5 4 4 3 3 3 3 3 2 2 3 4 5 5 6 5 5 5 5 5 5
10 11 13 12 10 14 9 6 7 8 7 8 10 9 8 7 7 6 5 6 6 5 5 5 5 5 5 4 4 4 5 5 5 6 7 7 7 7 6 6 6 6 5 6
6 11 14 15 13 13 10 8 8 8 8 8 9 9 8 7 6 7 5 5 7 7 8 9 9 8 8 7 5 6 6 6 7 8 8 8 7 7 7 7 6 6 7 7
6 10 14 14 16 19 12 8 6 5 15 7 7 8 8 7 11 9 5 6 7 7 9 9 9 10 8 8 8 8 8 9 9 9 8 7 7 8 8 6 7 7 7 7
10 11 13 14 16 14 10 8 6 11 13 8 8 6 7 8 7 5 5 7 7 8 8 9 9 10 9 7 7 9 9 9 9 8 8 7 6 6 6 6 7 7 7 7
11 12 12 11 13 17 7 8 9 8 7 7 7 6 6 6 6 6 6 7 7 8 8 8 8 9 9 7 8 10 10 9 9 8 7 7 7 7 8 7 7 7 7 8
12 8 10 9 12 7 7 7 5 5 6 6 6 5 5 6 6 6 6 6 6 7 7 7 7 8 8 8 7 9 9 8 8 8 8 8 8 9 8 8 8 8 8 9
8 7 8 9 7 7 6 5 4 4 5 5 4 4 4 5 5 5 6 6 6 6 7 7 7 8 8 8 9 9 9 9 9 10 9 9 9 9 9 9 9 9 10 11
10 9 10 9 7 6 5 5 4 5 4 4 4 4 4 4 5 6 6 7 7 7 7 7 7 8 8 8 9 10 10 10 11 10 10 10 9 10 10 10 9 9 9 11
8 10 11 13 7 6 6 4 4 5 5 4 4 4 3 5 6 6 7 7 7 8 8 8 8 8 8 9 10 10 10 11 11 11 11 11 10 10 10 10 9 10 10 11